CW5404 Weather Reports


time (UTC)temp
C
wind
direction
speed
KPH
gust
KPH
rain 1hr
cm
rain 24hr
cm
rain mn
cm
humidity
%
barometer
mb
20260505090415 8 360 0.0 0.0 0.00 0.00 0.00 93 1013.7
20260505085914 8 360 0.0 0.0 0.00 0.00 0.00 93 1013.7
20260505084915 8 360 0.0 0.0 0.00 0.00 0.00 93 1013.7
20260505083914 8 360 0.0 0.0 0.00 0.00 0.00 92 1013.6
20260505083415 9 360 0.0 0.0 0.00 0.00 0.00 92 1013.6
20260505082914 9 360 0.0 0.0 0.00 0.00 0.00 92 1013.6
20260505082414 9 360 0.0 0.0 0.00 0.00 0.00 92 1013.5
20260505081914 9 360 0.0 0.0 0.00 0.00 0.00 92 1013.5
20260505081414 9 360 0.0 0.0 0.00 0.00 0.00 92 1013.5
20260505080914 10 360 0.0 0.0 0.00 0.00 0.00 92 1013.3
20260505075914 10 360 0.0 0.0 0.00 0.00 0.00 92 1013.3
20260505074914 10 360 0.0 0.0 0.00 0.00 0.00 92 1013.2
20260505074414 10 360 0.0 0.0 0.00 0.00 0.00 92 1013.2
20260505073914 10 360 0.0 0.0 0.00 0.00 0.00 92 1012.9
20260505073414 10 360 0.0 0.0 0.00 0.00 0.00 91 1012.9
20260505072414 10 360 0.0 0.0 0.00 0.00 0.00 90 1012.9
20260505071914 10 141 0.0 0.0 0.00 0.00 0.00 90 1012.9
20260505071414 10 360 0.0 0.0 0.00 0.00 0.00 90 1012.9
20260505070913 10 360 0.0 0.0 0.00 0.00 0.00 90 1012.9
20260505070414 10 360 0.0 0.0 0.00 0.00 0.00 90 1012.9
20260505065914 10 360 0.0 0.0 0.00 0.00 0.00 89 1012.9
20260505064413 10 360 0.0 0.0 0.00 0.00 0.00 89 1012.8
20260505063914 10 360 0.0 0.0 0.00 0.00 0.00 88 1012.7
20260505062913 11 360 0.0 1.6 0.00 0.00 0.00 88 1012.8
20260505062413 11 360 0.0 1.6 0.00 0.00 0.00 88 1012.8
20260505061913 11 360 0.0 0.0 0.00 0.00 0.00 87 1012.7
20260505060913 11 360 0.0 0.0 0.00 0.00 0.00 87 1012.7
20260505060413 11 360 0.0 0.0 0.00 0.00 0.00 87 1012.7
20260505055913 11 360 0.0 0.0 0.00 0.00 0.00 87 1012.7
20260505055413 11 360 0.0 0.0 0.00 0.00 0.00 87 1012.5
20260505054913 11 360 0.0 0.0 0.00 0.00 0.00 87 1012.5
20260505054413 11 360 0.0 0.0 0.00 0.00 0.00 86 1012.6
20260505053913 11 360 0.0 0.0 0.00 0.00 0.00 86 1012.6
20260505053412 11 360 0.0 0.0 0.00 0.00 0.00 86 1012.6
20260505052913 11 360 0.0 0.0 0.00 0.00 0.00 86 1012.6
20260505052412 11 360 0.0 1.6 0.00 0.00 0.00 86 1012.6
20260505051912 12 360 0.0 1.6 0.00 0.00 0.00 86 1012.6
20260505050912 12 360 0.0 3.2 0.00 0.00 0.00 86 1012.4
20260505050413 12 360 0.0 3.2 0.00 0.00 0.00 85 1012.4
20260505041412 13 360 0.0 4.8 0.00 0.00 0.00 82 1011.8
20260505040912 13 360 3.2 4.8 0.00 0.00 0.00 82 1011.4
20260505040412 13 360 0.0 4.8 0.00 0.00 0.00 81 1011.4
20260505035912 14 360 0.0 4.8 0.00 0.00 0.00 81 1011.4
20260505035412 14 360 1.6 4.8 0.00 0.00 0.00 80 1011.1
20260505034912 14 360 4.8 4.8 0.00 0.00 0.00 79 1011.1
20260505034412 15 360 0.0 3.2 0.00 0.00 0.00 79 1011.1
20260505033912 15 360 0.0 3.2 0.00 0.00 0.00 78 1010.9
20260505032912 15 192 0.0 8.0 0.00 0.00 0.00 77 1011.0
20260505032411 16 145 3.2 4.8 0.00 0.00 0.00 76 1010.9
20260505031911 16 80 0.0 4.8 0.00 0.00 0.00 76 1010.9
20260505031411 16 80 3.2 6.4 0.00 0.00 0.00 75 1010.9
20260505030912 16 46 1.6 6.4 0.00 0.00 0.00 75 1010.7
20260505030411 16 52 0.0 4.8 0.00 0.00 0.00 74 1010.7
20260505025912 17 51 0.0 4.8 0.00 0.00 0.00 73 1010.7
20260505025411 17 128 0.0 4.8 0.00 0.00 0.00 72 1010.4
20260505024911 17 91 0.0 4.8 0.00 0.00 0.00 70 1010.4
20260505024411 17 54 0.0 8.0 0.00 0.00 0.00 69 1010.4
20260505023911 17 54 0.0 8.0 0.00 0.00 0.00 69 1010.2
20260505023411 18 148 4.8 6.4 0.00 0.00 0.00 69 1010.2
20260505022911 18 107 0.0 4.8 0.00 0.00 0.00 69 1010.2
20260505022411 18 80 1.6 8.0 0.00 0.00 0.00 68 1010.3
20260505021911 18 121 3.2 8.0 0.00 0.00 0.00 66 1010.3
20260505021411 18 175 1.6 8.0 0.00 0.00 0.00 67 1010.3
20260505020911 19 159 4.8 8.0 0.00 0.00 0.00 67 1010.3
20260505020411 19 143 3.2 8.0 0.00 0.00 0.00 66 1010.3
20260505015911 19 112 3.2 8.0 0.00 0.00 0.00 65 1010.3
20260505015411 19 49 0.0 8.0 0.00 0.00 0.00 66 1010.2
20260505014911 20 130 3.2 8.0 0.00 0.00 0.00 66 1010.2
20260505014411 20 145 1.6 6.4 0.00 0.00 0.00 65 1010.2
20260505013411 20 87 0.0 9.7 0.00 0.00 0.00 63 1010.2
20260505012911 20 94 4.8 9.7 0.00 0.00 0.00 64 1010.2
20260505012411 20 257 0.0 3.2 0.00 0.00 0.00 62 1010.4
20260505011911 20 225 0.0 3.2 0.00 0.00 0.00 63 1010.4
20260505011411 21 222 0.0 3.2 0.00 0.00 0.00 62 1010.4
20260505010911 21 235 1.6 6.4 0.00 0.00 0.00 63 1010.3
20260505010411 21 223 0.0 6.4 0.00 0.00 0.00 63 1010.3
20260505005910 21 202 0.0 3.2 0.00 0.00 0.00 63 1010.3
20260505005410 21 242 0.0 9.7 0.00 0.00 0.00 62 1010.3
20260505004910 21 240 1.6 9.7 0.00 0.00 0.00 62 1010.3
20260505004411 21 209 4.8 9.7 0.00 0.00 0.00 61 1010.3
20260505003910 21 279 1.6 9.7 0.00 0.00 0.00 61 1010.4
20260505002410 22 236 1.6 6.4 0.00 0.00 0.00 61 1010.4
20260505001910 22 182 0.0 6.4 0.00 0.00 0.00 60 1010.4
20260505000413 22 64 1.6 9.7 0.00 0.00 0.00 59 1010.5
20260504235910 22 58 0.0 9.7 0.00 0.00 0.00 59 1010.5
20260504235410 22 217 6.4 9.7 0.00 0.00 0.00 58 1010.5
20260504234910 22 200 3.2 9.7 0.00 0.00 0.00 60 1010.5
20260504234410 22 348 1.6 9.7 0.00 0.00 0.00 60 1010.5
20260504233410 22 258 3.2 11.3 0.00 0.00 0.00 59 1010.8
20260504232410 22 219 4.8 11.3 0.00 0.00 0.00 61 1010.7
20260504231910 22 266 1.6 11.3 0.00 0.00 0.00 60 1010.7
20260504231410 22 233 1.6 11.3 0.00 0.00 0.00 59 1010.7
20260504230910 22 209 3.2 11.3 0.00 0.00 0.00 60 1010.8
20260504230410 22 197 0.0 11.3 0.00 0.00 0.00 60 1010.8
20260504225910 22 224 8.0 12.9 0.00 0.00 0.00 61 1010.8
20260504225410 22 218 6.4 12.9 0.00 0.00 0.00 61 1010.9
20260504224910 22 229 4.8 12.9 0.00 0.00 0.00 59 1010.9
20260504224410 22 201 6.4 12.9 0.00 0.00 0.00 59 1010.9
20260504223909 22 202 12.9 12.9 0.00 0.00 0.00 58 1011.1
20260504223410 22 218 1.6 6.4 0.00 0.00 0.00 60 1011.2
20260504222909 22 182 6.4 6.4 0.00 0.00 0.00 60 1011.2
20260504222410 22 217 0.0 8.0 0.00 0.00 0.00 62 1011.2
20260504221909 22 173 1.6 8.0 0.00 0.00 0.00 57 1011.1
20260504221409 22 227 3.2 6.4 0.00 0.00 0.00 58 1011.1
20260504220909 22 328 1.6 6.4 0.00 0.00 0.00 58 1011.4
20260504220409 22 272 1.6 8.0 0.00 0.00 0.00 59 1011.4
20260504215909 22 65 1.6 8.0 0.00 0.00 0.00 64 1011.5
20260504215409 21 165 3.2 8.0 0.00 0.00 0.00 60 1011.5
20260504214909 21 198 6.4 8.0 0.00 0.00 0.00 61 1011.5
20260504214409 21 212 6.4 11.3 0.00 0.00 0.00 63 1011.5
20260504213909 21 212 8.0 11.3 0.00 0.00 0.00 64 1011.6
20260504213409 21 172 0.0 9.7 0.00 0.00 0.00 62 1011.6
20260504212409 21 214 4.8 11.3 0.00 0.00 0.00 64 1011.8
20260504211909 21 183 4.8 11.3 0.00 0.00 0.00 63 1011.8
20260504211409 21 178 6.4 11.3 0.00 0.00 0.00 63 1011.8
20260504205909 21 169 8.0 11.3 0.00 0.00 0.00 62 1012.0
20260504205409 21 122 3.2 9.7 0.00 0.00 0.00 68 1012.3
20260504204909 20 96 8.0 12.9 0.00 0.00 0.00 65 1012.2
20260504204409 20 99 4.8 12.9 0.00 0.00 0.00 66 1012.2
20260504203909 20 157 4.8 16.1 0.00 0.00 0.00 67 1012.3
20260504203408 19 103 1.6 16.1 0.00 0.00 0.00 66 1012.3
20260504202908 19 87 8.0 17.7 0.00 0.00 0.00 67 1012.3
20260504202409 20 109 11.3 17.7 0.00 0.00 0.00 68 1012.3
20260504201908 20 44 3.2 12.9 0.00 0.00 0.00 67 1012.3
20260504201409 20 132 6.4 11.3 0.00 0.00 0.00 67 1012.3
20260504200909 19 132 6.4 11.3 0.00 0.00 0.00 69 1012.4
20260504200409 19 175 4.8 11.3 0.00 0.00 0.00 69 1012.4
20260504195408 18 186 3.2 12.9 0.00 0.00 0.00 69 1012.5
20260504194908 18 119 4.8 12.9 0.00 0.00 0.00 69 1012.5
20260504194408 18 150 1.6 12.9 0.00 0.00 0.00 68 1012.5
20260504193908 18 107 4.8 14.5 0.00 0.00 0.00 70 1012.5
20260504193408 18 157 9.7 14.5 0.00 0.00 0.00 69 1012.5
20260504192908 18 196 3.2 9.7 0.00 0.00 0.00 69 1012.5
20260504192408 18 187 6.4 11.3 0.00 0.00 0.00 70 1012.5
20260504191408 18 132 11.3 12.9 0.00 0.00 0.00 71 1012.5
20260504190908 18 168 4.8 12.9 0.00 0.00 0.00 70 1012.7
20260504190408 18 160 3.2 9.7 0.00 0.00 0.00 69 1012.7
20260504172928 16 0.0 3.2 0.00 0.00 0.00 77 1012.9
20260504172429 16 1.6 3.2 0.00 0.00 0.00 78 1013.1
20260504171928 15 0.0 3.2 0.00 0.00 0.00 80 1013.1
20260504171428 15 0.0 0.0 0.00 0.00 0.00 81 1013.1
20260504170429 15 0.0 6.4 0.00 0.00 0.00 81 1013.0
20260504160428 13 0.0 0.0 0.00 0.00 0.00 87 1013.1
20260504130425 9 0.0 0.0 0.00 0.00 0.00 93 1011.1
20260504110424 11 0.0 0.0 0.00 0.00 0.00 89 1010.5
20260504100424 12 0.0 0.0 0.00 0.00 0.00 86 1010.1